Regional Weather Roundup
Issued by NWS Cleveland, OH

Home | Current Version | Previous Version | Graphics & Text | Print | Product List | Glossary On
Versions: 1 2 3 4 5 6 7 8 9 10 11 12 13 14 15 16 17 18 19 20 21 22 23 24 25 26 27 28 29 30 31 32 33 34 35 36 37 38 39 40 41 42 43 44 45 46 47 48 49 50
000
ASUS41 KCLE 011502
RWRCLE
OHIO REGIONAL WEATHER ROUNDUP
NATIONAL WEATHER SERVICE CLEVELAND, OH
1000 AM EST WED MAR 01 2017

NOTE: "FAIR" INDICATES FEW OR NO CLOUDS BELOW 12,000 FEET WITH NO
SIGNIFICANT WEATHER AND/OR OBSTRUCTIONS TO VISIBILITY.

OHZ001>008-015>018-024>027-034-035-043-044-011600-
   NORTHWEST OHIO

CITY           SKY/WX    TMP DP  RH WIND       PRES   REMARKS
DEFIANCE       CLOUDY    53  49  86 SW12      29.41S
FINDLAY        CLOUDY    55  49  80 S22G29    29.42F
TOLEDO EXPRESS CLOUDY    53  51  93 SW14G23   29.41S
TOLEDO EXEC    CLOUDY    55  51  86 SW24G31   29.42R
LIMA           NOT AVBL
$$

OHZ009>014-019>023-028>033-038-089-011600-
   NORTHEAST OHIO

CITY           SKY/WX    TMP DP  RH WIND       PRES   REMARKS
CLE-HOPKINS    LGT RAIN  54  48  80 S20G26    29.50S
CLE-LAKEFRONT  LGT RAIN  56  49  77 S21G28    29.46R
CUY CO. ARPT   LGT RAIN  55  50  82 SW12G21   29.47R
LORAIN-ELYRIA  LGT RAIN  53  47  79 SW20G28   29.48S
ASHTABULA      CLOUDY    54  50  86 S12       29.45F
AKRON-CANTON   LGT RAIN  52  49  89 S16       29.55R
WOOSTER        LGT RAIN  51  49  92 S16G23    29.57R
MANSFIELD      LGT RAIN  52  50  93 S20       29.54F
YOUNGSTOWN     LGT RAIN  52  49  89 S9        29.51F
$$

OHZ042-051>053-060>062-070>072-077>081-011600-
  SOUTHWEST OHIO

CITY           SKY/WX    TMP DP  RH WIND       PRES   REMARKS
CINC-COVINGTON CLOUDY    54  51  90 S10       29.63S
CINC-LUNKEN    CLOUDY    54  52  93 S10       29.64F
HAMILTON       CLOUDY    54  53  97 VRB5      29.61F
DAYTON         CLOUDY    52  50  93 S20       29.54F
WRIGHT-PAT AFB PTSUNNY   53  53 100 S12       29.56F
DAYTON GENERAL CLOUDY    52  51  97 S14       29.58F
WILMINGTON     LGT RAIN  52  50  93 SE16G22   29.57F
$$

OHZ036-037-039>041-045>050-054>059-063>069-073>076-082>088-011600-
  CENTRAL AND SOUTHEAST OHIO

CITY           SKY/WX    TMP DP  RH WIND       PRES   REMARKS
COLUMBUS       RAIN      55  53  93 S12       29.67R
OSU AIRPORT    LGT RAIN  53  53 100 S14       29.65R
BOLTON FIELD   RAIN      52  52 100 SW14      29.68R
RICKENBACK AFB RAIN      52  52 100 SW12      29.70R
NEWARK         LGT RAIN  53  53 100 SW10      29.67R
MARION         LGT RAIN  53  50  89 S28G33    29.53F
LANCASTER      RAIN      55  52  89 SW9       29.72R FOG
ZANESVILLE     RAIN      53  51  93 SW6       29.66R FOG
NEW PHILLY     NOT AVBL
$$



USA.gov is the U.S. government's official web portal to all federal, state and local government web resources and services.